Location: Mascot Post Office (historical)
(40.2645°N, 99.5462°W)
Time: 16:35:05
(UTC+00:00)

Cosmos 1606 - Pass Details

Date: 14 July 2020
Orbit: 505 x 527 km, 82.5° (Epoch: 04 August)

Event Time Altitude Azimuth Distance (km) Brightness Sun altitude
Rises 04:42:42 0° 358° (N) 2,670 7.3 -22.0°
Reaches altitude 10° 04:44:55 10° 4° (N) 1,777 6.2 -22.2°
Enters shadow 04:48:18 45° 59° (ENE) 727 3.3 -22.5°
